,,PA_Meas_PMT16A,,PR_Meas_QMR101_102,,RH_Meas_QMH101,,SR_Meas_QMS101,,TA_Meas_QMH101,,GenWind,,GenWind,
time,status,PA,status,PR,status,RH,status,SR,status,TA,status,DirAvg,status,SpdAvg,
2014-09-02, 00:00:04,VALID,918.639,VALID,0,VALID,94.1263,VALID,0,VALID,20.4829,VALID,22,VALID,0,
2014-09-02, 00:01:04,VALID,918.663,VALID,0,VALID,94.1873,VALID,0,VALID,20.5024,VALID,22,VALID,0,
2014-09-02, 00:02:04,VALID,918.652,VALID,0,VALID,94.1492,VALID,0,VALID,20.5024,VALID,22,VALID,0,
2014-09-02, 00:03:04,VALID,918.61,VALID,0,VALID,94.1263,VALID,0,VALID,20.5024,VALID,22,VALID,0,
2014-09-02, 00:04:04,VALID,918.564,VALID,0,VALID,94.1111,VALID,0,VALID,20.4829,VALID,22,VALID,0,
2014-09-02, 00:05:04,VALID,918.575,VALID,0,VALID,94.1797,VALID,0,VALID,20.5219,VALID,22,VALID,0,
2014-09-02, 00:06:04,VALID,918.597,VALID,0,VALID,94.1644,VALID,0,VALID,20.5414,VALID,22,VALID,0,
2014-09-02, 00:07:04,VALID,918.566,VALID,0,VALID,94.1263,VALID,0,VALID,20.5609,VALID,22,VALID,0,
2014-09-02, 00:08:04,VALID,918.528,VALID,0,VALID,94.0958,VALID,0,VALID,20.5399,VALID,22,VALID,0,
2014-09-02, 00:09:04,VALID,918.544,VALID,0,VALID,93.9967,VALID,0,VALID,20.5804,VALID,22,VALID,0,
2014-09-02, 00:10:04,VALID,918.542,VALID,0,VALID,93.9662,VALID,0,VALID,20.5999,VALID,22,VALID,0,
2014-09-02, 00:11:04,VALID,918.527,VALID,0,VALID,93.768,VALID,0,VALID,20.6194,VALID,22,VALID,0,
2014-09-02, 00:12:04,VALID,918.542,VALID,0,VALID,93.3792,VALID,0,VALID,20.5804,VALID,22,VALID,0,
2014-09-02, 00:13:04,VALID,918.514,VALID,0,VALID,93.3716,VALID,0,VALID,20.5414,VALID,22,VALID,0,
2014-09-02, 00:14:04,VALID,918.533,VALID,0,VALID,93.4173,VALID,0,VALID,20.5009,VALID,22,VALID,0,
2014-09-02, 00:15:04,VALID,918.545,VALID,0,VALID,93.5698,VALID,0,VALID,20.4829,VALID,22,VALID,0,
2014-09-02, 00:16:04,VALID,918.534,VALID,0,VALID,93.7299,VALID,0,VALID,20.4439,VALID,22,VALID,0,
2014-09-02, 00:17:04,VALID,918.522,VALID,0,VALID,93.7756,VALID,0,VALID,20.4244,VALID,22,VALID,0,
2014-09-02, 00:18:04,VALID,918.484,VALID,0,VALID,94.0653,VALID,0.107441,VALID,20.3838,VALID,22,VALID,0,
2014-09-02, 00:19:04,VALID,918.508,VALID,0,VALID,94.2864,VALID,0,VALID,20.3659,VALID,22,VALID,0,
2014-09-02, 00:20:04,VALID,918.481,VALID,0,VALID,94.6981,VALID,0,VALID,20.3464,VALID,22,VALID,0,
2014-09-02, 00:21:04,VALID,918.501,VALID,0,VALID,94.8582,VALID,0,VALID,20.3058,VALID,22,VALID,0,
2014-09-02, 00:22:04,VALID,918.487,VALID,0,VALID,94.9573,VALID,0,VALID,20.3074,VALID,22,VALID,0,
2014-09-02, 00:23:04,VALID,918.507,VALID,0,VALID,95.064,VALID,0,VALID,20.2863,VALID,22,VALID,0,
2014-09-02, 00:24:04,VALID,918.474,VALID,0,VALID,95.1555,VALID,0,VALID,20.3269,VALID,20,VALID,0,
2014-09-02, 00:25:04,VALID,918.458,VALID,0,VALID,95.1936,VALID,0,VALID,20.2863,VALID,17,VALID,0.166797,
2014-09-02, 00:26:04,VALID,918.435,VALID,0,VALID,95.1402,VALID,0,VALID,20.3074,VALID,17,VALID,1.29297,
2014-09-02, 00:27:04,VALID,918.436,VALID,0,VALID,95.0335,VALID,0,VALID,20.3074,VALID,7,VALID,0.842578,
2014-09-02, 00:28:04,VALID,918.432,VALID,0,VALID,94.8734,VALID,0,VALID,20.3074,VALID,355,VALID,0.104687,
2014-09-02, 00:29:04,VALID,918.407,VALID,0,VALID,94.7209,VALID,0,VALID,20.3269,VALID,348,VALID,0.292188,
2014-09-02, 00:30:04,VALID,918.39,VALID,0,VALID,94.5456,VALID,0,VALID,20.3269,VALID,345,VALID,0.0878906,
2014-09-02, 00:31:04,VALID,918.337,VALID,0,VALID,94.4236,VALID,0,VALID,20.3464,VALID,348,VALID,0.00585938,
2014-09-02, 00:32:05,VALID,918.363,VALID,0,VALID,94.3321,VALID,0,VALID,20.3464,VALID,358,VALID,0.0882813,
2014-09-02, 00:33:04,VALID,918.331,VALID,0,VALID,94.3474,VALID,0,VALID,20.3659,VALID,17,VALID,0,
2014-09-02, 00:34:05,VALID,918.317,VALID,0,VALID,94.3626,VALID,0,VALID,20.3464,VALID,21,VALID,0,
2014-09-02, 00:35:05,VALID,918.334,VALID,0,VALID,94.3855,VALID,0,VALID,20.3269,VALID,24,VALID,0.00429688,
2014-09-02, 00:36:05,VALID,918.348,VALID,0,VALID,94.416,VALID,0,VALID,20.3074,VALID,26,VALID,0,
2014-09-02, 00:37:05,VALID,918.343,VALID,0,VALID,94.477,VALID,0,VALID,20.3074,VALID,26,VALID,0,
2014-09-02, 00:38:05,VALID,918.336,VALID,0,VALID,94.538,VALID,0,VALID,20.2879,VALID,26,VALID,0,
2014-09-02, 00:39:05,VALID,918.366,VALID,0,VALID,94.6371,VALID,0,VALID,20.2684,VALID,26,VALID,0,
2014-09-02, 00:40:05,VALID,918.339,VALID,0,VALID,94.7209,VALID,0,VALID,20.2489,VALID,26,VALID,0,
2014-09-02, 00:41:05,VALID,918.329,VALID,0,VALID,94.7972,VALID,0,VALID,20.2293,VALID,26,VALID,0,
2014-09-02, 00:42:05,VALID,918.317,VALID,0,VALID,94.881,VALID,0,VALID,20.2293,VALID,26,VALID,0,
2014-09-02, 00:43:05,VALID,918.313,VALID,0,VALID,94.9192,VALID,0,VALID,20.2098,VALID,26,VALID,0,
2014-09-02, 00:44:05,VALID,918.29,VALID,0,VALID,94.9573,VALID,0,VALID,20.1903,VALID,26,VALID,0,
2014-09-02, 00:45:05,VALID,918.292,VALID,0,VALID,94.9649,VALID,0,VALID,20.1903,VALID,26,VALID,0,
2014-09-02, 00:46:05,VALID,918.302,VALID,0,VALID,94.9496,VALID,0,VALID,20.1693,VALID,26,VALID,0,
2014-09-02, 00:47:05,VALID,918.286,VALID,0,VALID,94.8658,VALID,0,VALID,20.1708,VALID,26,VALID,0,
2014-09-02, 00:48:05,VALID,918.259,VALID,0,VALID,94.5151,VALID,0,VALID,20.1903,VALID,26,VALID,0,
2014-09-02, 00:49:05,VALID,918.228,VALID,0,VALID,94.1034,VALID,0,VALID,20.2098,VALID,26,VALID,0,
2014-09-02, 00:50:05,VALID,918.204,VALID,0,VALID,93.7985,VALID,0,VALID,20.2489,VALID,26,VALID,0,
2014-09-02, 00:51:05,VALID,918.197,VALID,0,VALID,93.4555,VALID,0,VALID,20.2684,VALID,26,VALID,0,
2014-09-02, 00:52:05,VALID,918.189,VALID,0,VALID,93.2572,VALID,0,VALID,20.2879,VALID,26,VALID,0,
2014-09-02, 00:53:05,VALID,918.182,VALID,0,VALID,93.059,VALID,0,VALID,20.3074,VALID,26,VALID,0,
2014-09-02, 00:54:05,VALID,918.148,VALID,0,VALID,92.594,VALID,0,VALID,20.3269,VALID,26,VALID,0,
2014-09-02, 00:55:05,VALID,918.133,VALID,0,VALID,92.2128,VALID,0,VALID,20.3659,VALID,26,VALID,0,
2014-09-02, 00:56:05,VALID,918.101,VALID,0,VALID,91.8088,VALID,0,VALID,20.4244,VALID,26,VALID,0,
2014-09-02, 00:57:05,VALID,918.114,VALID,0,VALID,91.4886,VALID,0,VALID,20.4634,VALID,26,VALID,0,
2014-09-02, 00:58:05,VALID,918.075,VALID,0,VALID,91.2675,VALID,0,VALID,20.4813,VALID,26,VALID,0,
2014-09-02, 00:59:05,VALID,918.051,VALID,0,VALID,91.3361,VALID,0.107441,VALID,20.5414,VALID,26,VALID,0,
2014-09-02, 01:00:05,VALID,918.049,VALID,0,VALID,91.1303,VALID,0,VALID,20.5999,VALID,25,VALID,0,
2014-09-02, 01:01:05,VALID,917.994,VALID,0,VALID,90.9245,VALID,0,VALID,20.639,VALID,25,VALID,0,
2014-09-02, 01:02:05,VALID,918.01,VALID,0,VALID,90.7034,VALID,0,VALID,20.6569,VALID,25,VALID,0,
2014-09-02, 01:03:05,VALID,917.95,VALID,0,VALID,90.6348,VALID,0,VALID,20.7365,VALID,15,VALID,0,
2014-09-02, 01:04:05,VALID,917.933,VALID,0,VALID,90.1774,VALID,0,VALID,20.756,VALID,16,VALID,0,
2014-09-02, 01:05:05,VALID,917.928,VALID,0,VALID,89.8496,VALID,0.107441,VALID,20.7755,VALID,16,VALID,0,
2014-09-02, 01:06:05,VALID,917.891,VALID,0,VALID,90.2765,VALID,0,VALID,20.7544,VALID,15,VALID,0,
2014-09-02, 01:07:05,VALID,917.889,VALID,0,VALID,90.8025,VALID,0.107441,VALID,20.7349,VALID,15,VALID,0,
2014-09-02, 01:08:05,VALID,917.855,VALID,0,VALID,91.1913,VALID,0.107441,VALID,20.6975,VALID,336,VALID,0,
2014-09-02, 01:09:05,VALID,917.835,VALID,0,VALID,91.3666,VALID,0,VALID,20.639,VALID,336,VALID,0,
2014-09-02, 01:10:05,VALID,917.865,VALID,0,VALID,91.664,VALID,0,VALID,20.5999,VALID,336,VALID,0,
2014-09-02, 01:11:05,VALID,917.843,VALID,0,VALID,91.9308,VALID,0.107441,VALID,20.5999,VALID,336,VALID,0,
2014-09-02, 01:12:05,VALID,917.826,VALID,0,VALID,91.9613,VALID,0,VALID,20.5609,VALID,336,VALID,0,
2014-09-02, 01:13:05,VALID,917.809,VALID,0,VALID,92.0146,VALID,0,VALID,20.5414,VALID,336,VALID,0,
2014-09-02, 01:14:05,VALID,917.807,VALID,0,VALID,92.0146,VALID,0,VALID,20.5219,VALID,336,VALID,0,
2014-09-02, 01:15:05,VALID,917.786,VALID,0,VALID,91.9155,VALID,0,VALID,20.5414,VALID,336,VALID,0,
2014-09-02, 01:16:05,VALID,917.775,VALID,0,VALID,92.1747,VALID,0,VALID,20.5999,VALID,336,VALID,0,
2014-09-02, 01:17:05,VALID,917.795,VALID,0,VALID,92.1366,VALID,0,VALID,20.639,VALID,336,VALID,0,
2014-09-02, 01:18:05,VALID,917.744,VALID,0,VALID,92.2586,VALID,0,VALID,20.6585,VALID,336,VALID,0,
2014-09-02, 01:19:05,VALID,917.736,VALID,0,VALID,92.1823,VALID,0,VALID,20.6585,VALID,336,VALID,0,
2014-09-02, 01:20:05,VALID,917.714,VALID,0,VALID,92.007,VALID,0,VALID,20.6374,VALID,336,VALID,0,
2014-09-02, 01:21:05,VALID,917.679,VALID,0,VALID,91.8698,VALID,0,VALID,20.6569,VALID,341,VALID,0,
2014-09-02, 01:22:05,VALID,917.625,VALID,0,VALID,91.7554,VALID,0,VALID,20.6764,VALID,345,VALID,0,
2014-09-02, 01:23:05,VALID,917.571,VALID,0,VALID,91.5039,VALID,0,VALID,20.756,VALID,25,VALID,0,
2014-09-02, 01:24:05,VALID,917.532,VALID,0,VALID,91.1532,VALID,0,VALID,20.7755,VALID,26,VALID,0,
2014-09-02, 01:25:05,VALID,917.482,VALID,0,VALID,91.0465,VALID,0,VALID,20.7755,VALID,25,VALID,0,
2014-09-02, 01:26:05,VALID,917.483,VALID,0,VALID,91.2294,VALID,0,VALID,20.7349,VALID,25,VALID,0,
2014-09-02, 01:27:05,VALID,917.473,VALID,0,VALID,91.2904,VALID,0,VALID,20.7154,VALID,25,VALID,0,
2014-09-02, 01:28:05,VALID,917.494,VALID,0,VALID,91.3438,VALID,0,VALID,20.7154,VALID,25,VALID,0,
2014-09-02, 01:29:05,VALID,917.521,VALID,0,VALID,91.2752,VALID,0,VALID,20.7544,VALID,24,VALID,0,
2014-09-02, 01:30:05,VALID,917.498,VALID,0,VALID,91.1761,VALID,0,VALID,20.8145,VALID,24,VALID,0,
2014-09-02, 01:31:05,VALID,917.547,VALID,0,VALID,91.0846,VALID,0,VALID,20.8129,VALID,24,VALID,0,
2014-09-02, 01:32:05,VALID,917.514,VALID,0,VALID,91.0922,VALID,0,VALID,20.8324,VALID,24,VALID,0,
2014-09-02, 01:33:05,VALID,917.507,VALID,0,VALID,91.0693,VALID,0,VALID,20.8519,VALID,24,VALID,0,
2014-09-02, 01:34:05,VALID,917.489,VALID,0,VALID,91.0083,VALID,0,VALID,20.8925,VALID,24,VALID,0,
2014-09-02, 01:35:05,VALID,917.48,VALID,0,VALID,90.894,VALID,0,VALID,20.9316,VALID,24,VALID,0,
2014-09-02, 01:36:05,VALID,917.442,VALID,0,VALID,90.955,VALID,0,VALID,20.9511,VALID,24,VALID,0,
2014-09-02, 01:37:05,VALID,917.412,VALID,0,VALID,91.0846,VALID,0,VALID,20.9105,VALID,24,VALID,0,
2014-09-02, 01:38:05,VALID,917.363,VALID,0,VALID,91.3133,VALID,0,VALID,20.891,VALID,24,VALID,0,
2014-09-02, 01:39:05,VALID,917.336,VALID,0,VALID,91.3514,VALID,0,VALID,20.8925,VALID,24,VALID,0,
2014-09-02, 01:40:05,VALID,917.327,VALID,0,VALID,91.4657,VALID,0,VALID,20.8925,VALID,24,VALID,0,
2014-09-02, 01:41:05,VALID,917.315,VALID,0,VALID,91.5877,VALID,0.107441,VALID,20.8925,VALID,24,VALID,0,
2014-09-02, 01:42:05,VALID,917.331,VALID,0,VALID,91.7402,VALID,0,VALID,20.8535,VALID,24,VALID,0,
2014-09-02, 01:43:05,VALID,917.272,VALID,0,VALID,91.7249,VALID,0,VALID,20.834,VALID,23,VALID,0,
2014-09-02, 01:44:05,VALID,917.291,VALID,0,VALID,91.7402,VALID,0,VALID,20.795,VALID,23,VALID,0,
2014-09-02, 01:45:05,VALID,917.287,VALID,0,VALID,91.7935,VALID,0,VALID,20.756,VALID,23,VALID,0,
2014-09-02, 01:46:05,VALID,917.242,VALID,0,VALID,91.7935,VALID,0,VALID,20.7365,VALID,23,VALID,0,
2014-09-02, 01:47:05,VALID,917.254,VALID,0,VALID,91.7478,VALID,0,VALID,20.717,VALID,23,VALID,0,
2014-09-02, 01:48:05,VALID,917.249,VALID,0,VALID,91.8469,VALID,0,VALID,20.6975,VALID,23,VALID,0,
2014-09-02, 01:49:05,VALID,917.28,VALID,0,VALID,91.9613,VALID,0,VALID,20.678,VALID,23,VALID,0,
2014-09-02, 01:50:05,VALID,917.281,VALID,0,VALID,91.9231,VALID,0,VALID,20.6585,VALID,23,VALID,0,
2014-09-02, 01:51:05,VALID,917.294,VALID,0,VALID,91.9689,VALID,0,VALID,20.6585,VALID,23,VALID,0,
2014-09-02, 01:52:05,VALID,917.28,VALID,0,VALID,92.0223,VALID,0,VALID,20.6374,VALID,23,VALID,0,
2014-09-02, 01:53:05,VALID,917.288,VALID,0,VALID,91.946,VALID,0,VALID,20.639,VALID,23,VALID,0,
2014-09-02, 01:54:05,VALID,917.284,VALID,0,VALID,91.8164,VALID,0,VALID,20.6585,VALID,23,VALID,0,
2014-09-02, 01:55:05,VALID,917.28,VALID,0,VALID,91.7631,VALID,0.107441,VALID,20.6374,VALID,23,VALID,0,
2014-09-02, 01:56:05,VALID,917.226,VALID,0,VALID,91.7631,VALID,0,VALID,20.639,VALID,23,VALID,0,
2014-09-02, 01:57:05,VALID,917.223,VALID,0,VALID,91.7249,VALID,0,VALID,20.639,VALID,23,VALID,0,
2014-09-02, 01:58:05,VALID,917.215,VALID,0,VALID,91.7326,VALID,0.107441,VALID,20.6194,VALID,23,VALID,0,
2014-09-02, 01:59:05,VALID,917.205,VALID,0,VALID,91.7402,VALID,0,VALID,20.5999,VALID,23,VALID,0,
2014-09-02, 02:00:05,VALID,917.209,VALID,0,VALID,91.7859,VALID,0,VALID,20.5999,VALID,23,VALID,0,
2014-09-02, 02:01:05,VALID,917.206,VALID,0,VALID,91.9384,VALID,0,VALID,20.5804,VALID,23,VALID,0,
2014-09-02, 02:02:05,VALID,917.209,VALID,0,VALID,91.9003,VALID,0,VALID,20.5804,VALID,8,VALID,0,
2014-09-02, 02:03:05,VALID,917.211,VALID,0,VALID,91.8545,VALID,0,VALID,20.5609,VALID,8,VALID,0,
2014-09-02, 02:04:05,VALID,917.197,VALID,0,VALID,91.8774,VALID,0,VALID,20.5609,VALID,8,VALID,0,
2014-09-02, 02:05:05,VALID,917.215,VALID,0,VALID,91.8317,VALID,0,VALID,20.5414,VALID,10,VALID,0,
2014-09-02, 02:06:05,VALID,917.164,VALID,0,VALID,91.9384,VALID,0,VALID,20.5414,VALID,10,VALID,0,
2014-09-02, 02:07:05,VALID,917.159,VALID,0,VALID,91.824,VALID,0,VALID,20.5609,VALID,343,VALID,0,
2014-09-02, 02:08:05,VALID,917.166,VALID,0,VALID,91.8469,VALID,0,VALID,20.5594,VALID,343,VALID,0,
2014-09-02, 02:09:05,VALID,917.144,VALID,0,VALID,91.8012,VALID,0,VALID,20.5804,VALID,343,VALID,0,
2014-09-02, 02:10:05,VALID,917.146,VALID,0,VALID,91.7935,VALID,0,VALID,20.5804,VALID,348,VALID,0,
2014-09-02, 02:11:05,VALID,917.137,VALID,0,VALID,91.8469,VALID,0.107441,VALID,20.5609,VALID,13,VALID,0,
2014-09-02, 02:12:05,VALID,917.128,VALID,0,VALID,91.9765,VALID,0,VALID,20.5414,VALID,13,VALID,0,
2014-09-02, 02:13:05,VALID,917.129,VALID,0,VALID,92.1823,VALID,0,VALID,20.5414,VALID,13,VALID,0,
2014-09-02, 02:14:05,VALID,917.119,VALID,0,VALID,92.1214,VALID,0,VALID,20.5414,VALID,13,VALID,0,
2014-09-02, 02:15:05,VALID,917.088,VALID,0,VALID,92.0832,VALID,0.107441,VALID,20.5414,VALID,13,VALID,0,
2014-09-02, 02:16:05,VALID,917.065,VALID,0,VALID,92.0527,VALID,0,VALID,20.5219,VALID,13,VALID,0,
2014-09-02, 02:17:05,VALID,917.066,VALID,0,VALID,92.1519,VALID,0,VALID,20.5024,VALID,13,VALID,0,
2014-09-02, 02:18:05,VALID,916.992,VALID,0,VALID,92.2967,VALID,0,VALID,20.4439,VALID,13,VALID,0,
2014-09-02, 02:19:05,VALID,917.002,VALID,0,VALID,92.411,VALID,0,VALID,20.4439,VALID,13,VALID,0,
2014-09-02, 02:20:05,VALID,916.962,VALID,0,VALID,92.5559,VALID,0,VALID,20.4049,VALID,13,VALID,0,
2014-09-02, 02:21:05,VALID,916.944,VALID,0,VALID,92.7007,VALID,0,VALID,20.3854,VALID,13,VALID,0,
2014-09-02, 02:22:05,VALID,916.95,VALID,0,VALID,92.8532,VALID,0,VALID,20.3854,VALID,13,VALID,0,
2014-09-02, 02:23:05,VALID,916.95,VALID,0,VALID,92.9218,VALID,0,VALID,20.3854,VALID,13,VALID,0,
2014-09-02, 02:24:05,VALID,916.906,VALID,0,VALID,92.8837,VALID,0,VALID,20.4049,VALID,13,VALID,0,
2014-09-02, 02:25:05,VALID,916.953,VALID,0,VALID,92.9066,VALID,0,VALID,20.4049,VALID,13,VALID,0,
2014-09-02, 02:26:05,VALID,916.957,VALID,0,VALID,93.0362,VALID,0,VALID,20.4244,VALID,13,VALID,0,
2014-09-02, 02:27:05,VALID,916.953,VALID,0,VALID,93.0133,VALID,0,VALID,20.4439,VALID,13,VALID,0,
2014-09-02, 02:28:05,VALID,916.915,VALID,0,VALID,92.8989,VALID,0,VALID,20.4439,VALID,13,VALID,0,
2014-09-02, 02:29:05,VALID,916.918,VALID,0,VALID,92.9142,VALID,0,VALID,20.4634,VALID,13,VALID,0,
2014-09-02, 02:30:05,VALID,916.88,VALID,0,VALID,92.8837,VALID,0,VALID,20.4829,VALID,13,VALID,0,
2014-09-02, 02:31:05,VALID,916.893,VALID,0,VALID,92.7617,VALID,0.107441,VALID,20.4829,VALID,12,VALID,0,
2014-09-02, 02:32:05,VALID,916.874,VALID,0,VALID,92.777,VALID,0,VALID,20.4829,VALID,12,VALID,0,
2014-09-02, 02:33:05,VALID,916.863,VALID,0,VALID,92.7922,VALID,0,VALID,20.4829,VALID,8,VALID,0,
2014-09-02, 02:34:05,VALID,916.884,VALID,0,VALID,92.7236,VALID,0,VALID,20.4634,VALID,1,VALID,0,
2014-09-02, 02:35:05,VALID,916.872,VALID,0,VALID,92.8761,VALID,0.107441,VALID,20.4829,VALID,1,VALID,0,
2014-09-02, 02:36:05,VALID,916.923,VALID,0,VALID,93.1124,VALID,0.107441,VALID,20.5024,VALID,1,VALID,0,
2014-09-02, 02:37:05,VALID,916.927,VALID,0,VALID,93.0895,VALID,0.107441,VALID,20.4829,VALID,1,VALID,0,
2014-09-02, 02:38:05,VALID,916.963,VALID,0,VALID,93.1505,VALID,0,VALID,20.4634,VALID,1,VALID,0,
2014-09-02, 02:39:05,VALID,916.982,VALID,0,VALID,93.2191,VALID,0,VALID,20.4244,VALID,1,VALID,0,
2014-09-02, 02:40:05,VALID,916.987,VALID,0,VALID,93.3106,VALID,0,VALID,20.4049,VALID,1,VALID,0,
2014-09-02, 02:41:05,VALID,917.023,VALID,0,VALID,93.4631,VALID,0,VALID,20.4244,VALID,1,VALID,0,
2014-09-02, 02:42:05,VALID,917.034,VALID,0,VALID,93.5851,VALID,0,VALID,20.4244,VALID,1,VALID,0,
2014-09-02, 02:43:05,VALID,917.067,VALID,0,VALID,93.6613,VALID,0,VALID,20.4439,VALID,1,VALID,0,
2014-09-02, 02:44:05,VALID,917.098,VALID,0,VALID,93.6842,VALID,0,VALID,20.4439,VALID,1,VALID,0,
2014-09-02, 02:45:05,VALID,917.128,VALID,0,VALID,93.7451,VALID,0.107441,VALID,20.4228,VALID,1,VALID,0,
2014-09-02, 02:46:05,VALID,917.191,VALID,0,VALID,93.7756,VALID,0,VALID,20.4439,VALID,1,VALID,0,
2014-09-02, 02:47:05,VALID,917.205,VALID,0,VALID,93.8519,VALID,0,VALID,20.4439,VALID,1,VALID,0,
2014-09-02, 02:48:05,VALID,917.248,VALID,0,VALID,93.8747,VALID,0,VALID,20.4439,VALID,1,VALID,0,
2014-09-02, 02:49:05,VALID,917.254,VALID,0,VALID,93.9052,VALID,0,VALID,20.4439,VALID,1,VALID,0,
2014-09-02, 02:50:05,VALID,917.176,VALID,0,VALID,93.951,VALID,0,VALID,20.4439,VALID,1,VALID,0,
2014-09-02, 02:51:05,VALID,917.186,VALID,0,VALID,93.9738,VALID,0,VALID,20.465,VALID,1,VALID,0,
2014-09-02, 02:52:05,VALID,917.099,VALID,0,VALID,93.9891,VALID,0,VALID,20.4634,VALID,1,VALID,0,
2014-09-02, 02:53:05,VALID,917.055,VALID,0,VALID,93.768,VALID,0,VALID,20.4634,VALID,1,VALID,0,
2014-09-02, 02:54:05,VALID,917.034,VALID,0,VALID,93.5927,VALID,0,VALID,20.4829,VALID,1,VALID,0,
2014-09-02, 02:55:05,VALID,916.967,VALID,0,VALID,93.3487,VALID,0,VALID,20.5024,VALID,1,VALID,0,
2014-09-02, 02:56:05,VALID,916.974,VALID,0,VALID,93.2039,VALID,0,VALID,20.5219,VALID,1,VALID,0,
2014-09-02, 02:57:05,VALID,916.922,VALID,0,VALID,93.1276,VALID,0,VALID,20.5219,VALID,1,VALID,0,
2014-09-02, 02:58:05,VALID,916.935,VALID,0,VALID,93.0133,VALID,0,VALID,20.5219,VALID,1,VALID,0,
2014-09-02, 02:59:05,VALID,916.885,VALID,0,VALID,92.9294,VALID,0,VALID,20.5219,VALID,1,VALID,0,
2014-09-02, 03:00:05,VALID,916.876,VALID,0,VALID,92.9371,VALID,0,VALID,20.5219,VALID,1,VALID,0,
2014-09-02, 03:01:05,VALID,916.9,VALID,0,VALID,92.9523,VALID,0,VALID,20.5024,VALID,1,VALID,0,
2014-09-02, 03:02:05,VALID,916.852,VALID,0,VALID,93.0209,VALID,0,VALID,20.5024,VALID,1,VALID,0,
2014-09-02, 03:03:05,VALID,916.885,VALID,0,VALID,93.1124,VALID,0,VALID,20.5024,VALID,2,VALID,0,
2014-09-02, 03:04:05,VALID,916.836,VALID,0,VALID,93.1734,VALID,0,VALID,20.4829,VALID,1,VALID,0,
2014-09-02, 03:05:05,VALID,916.822,VALID,0,VALID,93.1886,VALID,0,VALID,20.4845,VALID,360,VALID,0,
2014-09-02, 03:06:05,VALID,916.782,VALID,0,VALID,93.2725,VALID,0,VALID,20.4634,VALID,202,VALID,0,
2014-09-02, 03:07:05,VALID,916.771,VALID,0,VALID,93.4555,VALID,0,VALID,20.4439,VALID,202,VALID,0,
2014-09-02, 03:08:05,VALID,916.741,VALID,0,VALID,93.5317,VALID,0,VALID,20.4244,VALID,202,VALID,0,
2014-09-02, 03:09:05,VALID,916.712,VALID,0,VALID,93.7147,VALID,0,VALID,20.4244,VALID,202,VALID,0,
2014-09-02, 03:10:05,VALID,916.701,VALID,0,VALID,93.8824,VALID,0.107441,VALID,20.4049,VALID,202,VALID,0,
2014-09-02, 03:11:05,VALID,916.734,VALID,0,VALID,94.0196,VALID,0,VALID,20.3854,VALID,202,VALID,0,
2014-09-02, 03:12:05,VALID,916.705,VALID,0,VALID,94.2407,VALID,0,VALID,20.4049,VALID,202,VALID,0,
2014-09-02, 03:13:05,VALID,916.737,VALID,0,VALID,94.5913,VALID,0,VALID,20.4049,VALID,202,VALID,0,
2014-09-02, 03:14:05,VALID,916.716,VALID,0,VALID,94.7057,VALID,0,VALID,20.4244,VALID,202,VALID,0,
2014-09-02, 03:15:04,VALID,916.754,VALID,0,VALID,94.7667,VALID,0,VALID,20.4244,VALID,202,VALID,0,
2014-09-02, 03:16:04,VALID,916.78,VALID,0,VALID,94.8048,VALID,0,VALID,20.4423,VALID,202,VALID,0,
2014-09-02, 03:17:04,VALID,916.772,VALID,0,VALID,94.82,VALID,0,VALID,20.4634,VALID,202,VALID,0,
2014-09-02, 03:18:04,VALID,916.774,VALID,0,VALID,94.82,VALID,0,VALID,20.4634,VALID,201,VALID,0,
2014-09-02, 03:19:04,VALID,916.778,VALID,0,VALID,94.7896,VALID,0,VALID,20.4829,VALID,202,VALID,0,
2014-09-02, 03:20:04,VALID,916.806,VALID,0,VALID,94.7743,VALID,0,VALID,20.4829,VALID,202,VALID,0,
2014-09-02, 03:21:04,VALID,916.808,VALID,0,VALID,94.7667,VALID,0,VALID,20.4829,VALID,202,VALID,0,
2014-09-02, 03:22:04,VALID,916.823,VALID,0,VALID,94.7438,VALID,0,VALID,20.5024,VALID,202,VALID,0,
2014-09-02, 03:23:04,VALID,916.852,VALID,0,VALID,94.7514,VALID,0,VALID,20.5219,VALID,202,VALID,0,
2014-09-02, 03:24:04,VALID,916.87,VALID,0,VALID,94.7362,VALID,0,VALID,20.5219,VALID,202,VALID,0,
2014-09-02, 03:25:04,VALID,916.903,VALID,0,VALID,94.7209,VALID,0,VALID,20.543,VALID,202,VALID,0,
2014-09-02, 03:26:04,VALID,916.891,VALID,0,VALID,94.6447,VALID,0,VALID,20.5219,VALID,202,VALID,0,
2014-09-02, 03:27:04,VALID,916.92,VALID,0,VALID,94.6676,VALID,0,VALID,20.5219,VALID,202,VALID,0,
2014-09-02, 03:28:04,VALID,916.959,VALID,0,VALID,94.6828,VALID,0,VALID,20.5024,VALID,202,VALID,0,
2014-09-02, 03:29:04,VALID,916.974,VALID,0,VALID,94.82,VALID,0,VALID,20.5219,VALID,202,VALID,0,
2014-09-02, 03:30:04,VALID,916.983,VALID,0,VALID,94.8658,VALID,0.107441,VALID,20.5219,VALID,202,VALID,0,
2014-09-02, 03:31:04,VALID,916.978,VALID,0,VALID,94.8887,VALID,0,VALID,20.5204,VALID,202,VALID,0,
2014-09-02, 03:32:04,VALID,917.048,VALID,0,VALID,94.8429,VALID,0,VALID,20.5204,VALID,202,VALID,0,
2014-09-02, 03:33:04,VALID,917.064,VALID,0,VALID,94.8429,VALID,0,VALID,20.5219,VALID,202,VALID,0,
2014-09-02, 03:34:04,VALID,917.092,VALID,0,VALID,94.8658,VALID,0,VALID,20.5024,VALID,202,VALID,0,
2014-09-02, 03:35:04,VALID,917.11,VALID,0,VALID,94.8963,VALID,0,VALID,20.5219,VALID,202,VALID,0,
2014-09-02, 03:36:04,VALID,917.117,VALID,0,VALID,94.8277,VALID,0,VALID,20.5024,VALID,202,VALID,0,
2014-09-02, 03:37:04,VALID,917.122,VALID,0,VALID,94.7896,VALID,0,VALID,20.5024,VALID,202,VALID,0,
2014-09-02, 03:38:04,VALID,917.113,VALID,0,VALID,94.8048,VALID,0,VALID,20.4829,VALID,202,VALID,0,
2014-09-02, 03:39:04,VALID,917.107,VALID,0,VALID,94.82,VALID,0,VALID,20.4439,VALID,202,VALID,0,
2014-09-02, 03:40:04,VALID,917.13,VALID,0,VALID,94.8887,VALID,0,VALID,20.4033,VALID,202,VALID,0,
2014-09-02, 03:41:04,VALID,917.101,VALID,0,VALID,94.9115,VALID,0,VALID,20.4033,VALID,202,VALID,0,
2014-09-02, 03:42:04,VALID,917.136,VALID,0,VALID,94.9801,VALID,0,VALID,20.4033,VALID,202,VALID,0,
2014-09-02, 03:43:04,VALID,917.157,VALID,0,VALID,95.0335,VALID,0.107441,VALID,20.4033,VALID,202,VALID,0,
2014-09-02, 03:44:04,VALID,917.144,VALID,0,VALID,95.1021,VALID,0,VALID,20.4439,VALID,202,VALID,0,
2014-09-02, 03:45:04,VALID,917.188,VALID,0,VALID,95.1174,VALID,0.107441,VALID,20.4423,VALID,202,VALID,0,
2014-09-02, 03:46:04,VALID,917.182,VALID,0,VALID,95.1402,VALID,0.107441,VALID,20.4018,VALID,202,VALID,0,
2014-09-02, 03:47:04,VALID,917.184,VALID,0,VALID,95.186,VALID,0.214882,VALID,20.4213,VALID,202,VALID,0,
2014-09-02, 03:48:04,VALID,917.172,VALID,0,VALID,95.2546,VALID,0.107441,VALID,20.4228,VALID,202,VALID,0,
2014-09-02, 03:49:04,VALID,917.185,VALID,0,VALID,95.247,VALID,0.107441,VALID,20.4033,VALID,202,VALID,0,
2014-09-02, 03:50:04,VALID,917.199,VALID,0,VALID,95.2775,VALID,0.107441,VALID,20.3643,VALID,202,VALID,0,
2014-09-02, 03:51:04,VALID,917.155,VALID,0,VALID,95.3537,VALID,0.107441,VALID,20.3643,VALID,202,VALID,0,
2014-09-02, 03:52:04,VALID,917.175,VALID,0,VALID,95.4299,VALID,0.107441,VALID,20.3838,VALID,202,VALID,0,
2014-09-02, 03:53:04,VALID,917.166,VALID,0,VALID,95.4985,VALID,0.107441,VALID,20.4033,VALID,202,VALID,0,
2014-09-02, 03:54:04,VALID,917.134,VALID,0,VALID,95.5443,VALID,0.107441,VALID,20.4033,VALID,202,VALID,0,
2014-09-02, 03:55:04,VALID,917.142,VALID,0,VALID,95.59,VALID,0.107441,VALID,20.4228,VALID,202,VALID,0,
2014-09-02, 03:56:04,VALID,917.118,VALID,0,VALID,95.6281,VALID,0,VALID,20.4049,VALID,202,VALID,0,
2014-09-02, 03:57:04,VALID,917.104,VALID,0,VALID,95.6357,VALID,0,VALID,20.3854,VALID,202,VALID,0,
2014-09-02, 03:58:04,VALID,917.098,VALID,0,VALID,95.651,VALID,0,VALID,20.3854,VALID,202,VALID,0,
2014-09-02, 03:59:04,VALID,917.101,VALID,0,VALID,95.7044,VALID,0,VALID,20.4064,VALID,202,VALID,0,